Weather in Mõisaküla

Estonia     58°05′33″N   25°10′55″E
temp.,
°C
wind,
m/s
gust,
m/s
humid.,
%
clouds,
%
prec.,
mm/h
press.,
hPa
HPBL,
m
11 april, sun
sun1100:000sw27740 0.0 1019143
03:00−1ssw25763 0.0 1021110
06:00−1s258098 0.0 1022112
09:00+3s24529 0.0 1024331
12:00+8sse233273 0.0 10241143
15:00+10se343185 0.0 10241399
18:00+9sse4770100 0.0 1023783
21:00+6se41089100 0.1 1023403
12 april, mon
mon1200:00+6se4149499 0.3 1022408
03:00+7se4139279 0.3 1021370
06:00+7sse41485100 0.0 1020400
09:00+9sse51469100 0.0 1020648
12:00+13sse61351100 0.0 1020905
15:00+15s61243100 0.0 10191471
18:00+13s51148100 0.0 10181372
21:00+11s41057100 0.0 1019790
13 april, tue
tue1300:00+9s4981100 0.1 1018678
03:00+8ssw2686100 0.1 1018508
06:00+5w3590100 0.2 1018302
09:00+4wnw3588100 0.4 1020436
12:00+5w3575100 0.0 1021684
15:00+6w4656100 0.0 1022842
18:00+6w4651100 0.0 1023934
21:00+2wsw2573100 0.0 1024159
14 april, wed
wed1400:00+1w2786100 0.0 1024210
03:000wnw2696100 0.0 1024178
06:00−1nw239571 0.0 102483
09:00+3nnw2468100 0.0 1025463
12:00+7n3452100 0.0 10251159
15:00+9n3442100 0.0 10241719
18:00+8nne3444100 0.0 10241691
21:00+4n3863100 0.0 1026273
15 april, thu
thu1500:00+2n3870100 0.0 1027289
03:00+1n277752 0.0 1027226
06:00−1n298348 0.0 1028197
09:00+4nne485645 0.0 1028573
12:00+8nne47385 0.0 10281282
15:00+10nne57373 0.0 10281583
18:00+10ne57445 0.0 10281553
21:00+5ne410610 0.0 1030555